Weather History for CWJU - December, 2012

Change the Weather History Date:

Saturday, December 15, 2012

  Actual Average Record
Temperature  
Mean Temperature 38 °F -  
Max Temperature 41 °F - - ()
Min Temperature 34 °F - - ()
Degree Days  
Heating Degree Days 28    
Moisture  
Dew Point 35 °F    
Average Humidity 88    
Maximum Humidity 97    
Minimum Humidity 77    
Precipitation  
Precipitation 0.00 in - - ()
Sea Level Pressure  
Sea Level Pressure 29.14 in    
Wind  
Wind Speed 17 mph ()    
Max Wind Speed 34 mph    
Max Gust Speed 50 mph    
T = Trace of Precipitation, MM = Missing Value Source: Averaged Metar Reports

Daily Weather History Graph

Daily Weather History Graph

Search for Another Location

Airport or City:

Trip Planner

Search our weather history database for the weather conditions in past years. The results will help you decide how hot, cold, wet, or windy it might be!

Date:

Astronomy

Dec. 15, 2012 Rise Set
Actual Time 9:07 AM PST 4:28 PM PST
Civil Twilight 8:22 AM PST 5:12 PM PST
Nautical Twilight 7:36 AM PST 5:59 PM PST
Astronomical Twilight 6:52 AM PST 6:42 PM PST
Moon 10:45 AM PST (12/15) 8:03 PM PST (12/15)
Length of Visible Light 8h 49m
Length of Day
7h 21m
Waxing Crescent, 9% of the Moon is Illuminated
Dec 15
Waxing Crescent
Dec 19
First Quarter
Dec 28
Full
Jan 4
Last Quarter
Jan 11
New

Hourly Weather History & Observations

Time (PST) Temp. Windchill Dew Point Humidity Pressure Visibility Wind Dir Wind Speed Gust Speed Precip Events Conditions
12:00 AM 40.3 °F 33.9 °F 39.0 °F 95% 28.96 in - SW 10.4 mph 18.4 mph N/A   Unknown
1:00 AM 40.1 °F 32.4 °F 39.0 °F 96% 28.95 in - West 13.8 mph 23.0 mph N/A   Unknown
2:00 AM 39.9 °F 32.9 °F 39.0 °F 97% 28.96 in - WSW 11.5 mph 20.7 mph N/A   Unknown
3:00 AM 40.3 °F 31.9 °F 39.4 °F 97% 28.97 in - West 16.1 mph 29.9 mph N/A   Unknown
4:00 AM 38 °F - 37 °F 97% 29.00 in - WNW 26.5 mph - -  
4:00 AM 38.5 °F 27.1 °F 37.4 °F 96% 29.00 in - WNW 26.5 mph 33.4 mph N/A   Unknown
5:00 AM 39.4 °F 26.9 °F 36.7 °F 90% 29.03 in - WNW 34.5 mph 41.4 mph N/A   Unknown
6:00 AM 40.8 °F 29.0 °F 35.2 °F 80% 29.06 in - WNW 33.4 mph - N/A   Unknown
7:00 AM 40.8 °F 29.4 °F 35.6 °F 82% 29.09 in - WNW 31.1 mph 38.0 mph N/A   Unknown
8:00 AM 37.4 °F 24.6 °F 34.7 °F 90% 29.13 in - WNW 32.2 mph 40.3 mph N/A   Unknown
9:00 AM 39.4 °F 27.3 °F 35.8 °F 87% 29.14 in - WNW 32.2 mph 41.4 mph N/A   Unknown
10:00 AM 39 °F - 34 °F 77% 29.16 in - WNW 34.5 mph - -  
10:00 AM 38.8 °F 26.2 °F 34.3 °F 84% 29.16 in - WNW 34.5 mph 49.5 mph N/A   Unknown
11:00 AM 39.2 °F 27.8 °F 34.7 °F 84% 29.18 in - West 27.6 mph - N/A   Unknown
12:00 PM 39.7 °F 29.2 °F 33.4 °F 78% 29.20 in - West 24.2 mph - N/A   Unknown
1:00 PM 39.4 °F 30.4 °F 34.3 °F 82% 29.21 in - West 17.3 mph - N/A   Unknown
2:00 PM 38.1 °F 29.8 °F 32.9 °F 81% 29.22 in - West 13.8 mph 29.9 mph N/A   Unknown
3:00 PM 39.6 °F 29.2 °F 34.9 °F 83% 29.22 in - West 23.0 mph 32.2 mph N/A   Unknown
4:00 PM 36 °F - 32 °F 80% 29.23 in - SW 9.2 mph - -  
4:00 PM 36.5 °F 29.7 °F 32.0 °F 84% 29.23 in - SW 9.2 mph - N/A   Unknown
5:00 PM 37.0 °F 28.5 °F 33.8 °F 88% 29.23 in - West 13.8 mph 20.7 mph N/A   Unknown
6:00 PM 37.0 °F 27.4 °F 33.8 °F 88% 29.24 in - West 17.3 mph 27.6 mph N/A   Unknown
7:00 PM 34.3 °F 27.7 °F 31.8 °F 90% 29.24 in - SW 8.1 mph - N/A   Unknown
8:00 PM 34.9 °F 29.0 °F 31.3 °F 87% 29.24 in - SSW 6.9 mph - N/A   Unknown
9:00 PM 35.6 °F 29.2 °F 34.0 °F 94% 29.24 in - SW 8.1 mph - N/A   Unknown
10:00 PM 35 °F - 33 °F 89% 29.24 in - SW 10.4 mph - -  
10:00 PM 34.7 °F 26.9 °F 32.9 °F 93% 29.24 in - SW 10.4 mph - N/A   Unknown
11:00 PM 34.9 °F 26.2 °F 33.6 °F 95% 29.26 in - WSW 12.7 mph 19.6 mph N/A   Unknown